Location: Boca de Tacagua
(10.5333°N, 66.9833°W)
Time: 21:51:33
(UTC+00:00)

XW-2B - Visible Passes

Search period start: 22 March 2023 00:00
Search period end: 01 April 2023 00:00
Orbit: 480 x 499 km, 97.5° (Epoch: 22 March)

Date Brightness Start Highest point End Pass type
(mag) Time Alt. Az. Time Alt. Az. Time Alt. Az.
23 Mar ? 09:56:36 10° NE 09:59:33 24° E 10:02:31 10° SSE visible
24 Mar ? 09:35:58 10° E 09:36:50 11° E 09:37:42 10° ESE visible
24 Mar ? 23:02:00 10° SW 23:04:20 16° W 23:06:38 10° WNW visible
27 Mar ? 09:58:50 10° NE 10:01:54 26° E 10:04:58 10° SSE visible
28 Mar ? 09:37:45 10° ENE 09:39:03 12° E 09:40:21 10° ESE visible
28 Mar ? 23:04:19 10° SW 23:06:28 15° W 23:08:36 10° WNW visible
31 Mar ? 10:00:35 10° NE 10:03:42 28° E 10:06:51 10° SSE visible
